[[{"header":{"parameterUnit":"m.s-1","parameterCategory":1,"la1":30.2992,"la2":30.254,"lo1":-89.0895,"lo2":-89.0443,"dy":0.0025,"dx":0.0025,"nx":19,"ny":19,"refTime":"2026-04-04T21:00:00:Z","depth":0,"parameterNumber":2,"parameterNumberName":"U-component_of_WINDS"},"data":[0,0,0,-3.8663,-3.8667,-3.8859,-3.886,-3.9118,-3.9121,0,0,0,0,0,0,0,0,0,0,0,-3.8615,-3.8617,-3.8663,-3.8668,-3.8859,-3.886,-3.9118,-3.9121,0,0,0,0,0,0,0,0,0,0,0,-3.8614,-3.8616,-3.8619,-3.8668,-3.8859,-3.886,-3.9117,-3.8968,0,0,0,0,0,0,0,0,0,0,-3.8779,-3.8743,-3.8615,-3.8619,-3.867,-3.8859,-3.886,-3.896,-3.8977,-3.9037,0,-3.9093,0,-3.9111,-3.9139,-3.914,0,0,0,-3.8661,-3.8729,-3.8773,-3.8619,-3.8671,-3.8859,-3.8771,-3.897,-3.8989,-3.9059,-3.9097,-3.9106,-3.9115,-3.9141,-3.9142,-3.951,-3.9512,0,0,-3.8651,-3.8654,-3.876,-3.8786,-3.8757,-3.8765,-3.8777,-3.8981,-3.9021,-3.9097,-3.9112,-3.912,-3.9142,-3.9145,-3.9508,-3.951,0,0,0,-3.8625,-3.8647,-3.8685,-3.8776,-3.8809,-3.8771,-3.8785,-3.9012,-3.9025,-3.9114,-3.9123,-3.9144,-3.9147,-3.9506,-3.9509,-3.9613,0,0,0,-3.8618,-3.8631,-3.8681,-3.8685,-3.8806,-3.8913,-3.8812,-3.9011,-3.9034,-3.9121,-3.9144,-3.915,-3.9504,-3.9507,-3.9605,-3.9663,0,0,0,-3.8599,-3.8629,-3.8659,-3.8684,-3.8767,-3.891,-3.8934,-3.9015,-3.9039,-3.914,-3.9151,-3.9502,-3.9507,-3.9599,-3.9652,-3.9763,0,0,0,-3.858,-3.8748,-3.8661,-3.8852,-3.8765,-3.8972,-3.8932,-3.9086,-3.9185,-3.9145,-3.9504,-3.9509,-3.9597,-3.9645,-3.9755,-3.9859,-3.9901,0,0,-3.8794,-3.8774,-3.8887,-3.8814,-3.9038,-3.8943,-3.9181,-3.9269,-3.9275,-3.9431,-3.944,-3.9608,-3.9651,-3.9761,-4.0133,-4.0167,0,0,0,-3.8956,-3.9037,-3.9095,-3.919,-3.926,-3.9326,-3.9376,-3.9408,-3.9541,-3.9356,-3.9676,-3.9702,-3.9766,-3.9816,-3.9844,-3.9901,-3.9531,-3.953,-3.953,-3.9265,-3.9264,-3.945,-3.9473,-3.9564,-3.9614,-3.9689,-3.9741,-3.9712,-3.9788,-3.9836,-4.0061,-4.0119,-4.0141,-4.0199,-3.9887,-3.9887,-3.9888,-3.9888,-3.9582,-3.9698,-3.9655,-3.9821,-3.9819,-3.9958,-4.0012,-3.9987,-4.0116,-4.0025,-4.0082,-3.9986,-4.0178,-4.0229,-3.9896,-3.9895,-3.9894,-3.9893,-3.9892,-3.9788,-3.9843,-3.9879,-4.0015,-4.012,-4.0135,-4.0262,-4.0254,-4.0247,-4.0303,-4.0354,-4.0352,-4.0352,-4.0327,-4.0328,-4.0329,-4.0329,-4.033,-4.033,-3.9989,-4.0026,-4.0134,-4.0222,-4.0281,-4.0359,-4.0409,-4.0467,-4.053,-4.0514,-4.0515,-4.0481,-4.0196,-4.0126,-4.0343,-4.0341,-4.0339,-4.0338,-4.0337,-4.0317,-4.0241,-4.0408,-4.0468,-4.0571,-4.0676,-4.0663,-4.0782,-4.0829,-4.0892,-4.0844,-4.0633,-4.0613,-4.059,-4.0533,-4.0842,-4.0842,-4.0842,-4.0842,-4.0493,-4.0481,-4.065,-4.0746,-4.0839,-4.0844,-4.1033,-4.1073,-4.1102,-4.1131,-4.1084,-4.1006,-4.0983,-4.0976,-4.0945,-4.0892,-4.1285,-4.1286,-4.1286,-4.0696,-4.0692,-4.0856,-4.0883,-4.0963,-4.1031,-4.1209,-4.1321,-4.1338,-4.1304,-4.1154,-4.1136,-4.1009,-4.0968,-4.0935,-4.0886,-4.0788,0,0]},{"header":{"parameterUnit":"m.s-1","parameterCategory":1,"la1":30.2992,"la2":30.254,"lo1":-89.0895,"lo2":-89.0443,"dy":0.0025,"dx":0.0025,"nx":19,"ny":19,"refTime":"2026-04-04T21:00:00:Z","depth":0,"parameterNumber":3,"parameterNumberName":"V-component_of_WINDS"},"data":[0,0,0,-6.5833,-6.5835,-6.5927,-6.5927,-6.6059,-6.6061,0,0,0,0,0,0,0,0,0,0,0,-6.5817,-6.5818,-6.5832,-6.5835,-6.5927,-6.5927,-6.6059,-6.6061,0,0,0,0,0,0,0,0,0,0,0,-6.5816,-6.5818,-6.582,-6.5835,-6.5927,-6.5927,-6.6059,-6.5984,0,0,0,0,0,0,0,0,0,0,-6.5892,-6.5889,-6.5818,-6.582,-6.5836,-6.5927,-6.5927,-6.598,-6.5988,-6.6025,0,-6.6063,0,-6.6064,-6.6071,-6.6071,0,0,0,-6.5826,-6.5882,-6.5897,-6.582,-6.5837,-6.5927,-6.5883,-6.5984,-6.5994,-6.6036,-6.6064,-6.6069,-6.6066,-6.6072,-6.6073,-6.6319,-6.6321,0,0,-6.5821,-6.5839,-6.589,-6.5904,-6.5893,-6.588,-6.5886,-6.599,-6.6021,-6.6065,-6.6072,-6.6069,-6.6073,-6.6074,-6.6318,-6.632,0,0,0,-6.5812,-6.5836,-6.5848,-6.5899,-6.5914,-6.5883,-6.589,-6.6016,-6.6019,-6.6073,-6.607,-6.6074,-6.6075,-6.6316,-6.6318,-6.6415,0,0,0,-6.5809,-6.5831,-6.5846,-6.5858,-6.5913,-6.5967,-6.5914,-6.6011,-6.6023,-6.6069,-6.6074,-6.6077,-6.6314,-6.6317,-6.6409,-6.6458,0,0,0,-6.5807,-6.5831,-6.5848,-6.5859,-6.5899,-6.5965,-6.5973,-6.6013,-6.6021,-6.6071,-6.6077,-6.6313,-6.6317,-6.6403,-6.6449,-6.6528,0,0,0,-6.5809,-6.5933,-6.585,-6.5986,-6.5899,-6.6025,-6.5972,-6.6065,-6.6119,-6.6074,-6.6314,-6.6318,-6.6402,-6.6443,-6.6522,-6.6599,-6.6633,0,0,-6.5975,-6.5953,-6.6032,-6.5961,-6.6107,-6.6009,-6.6168,-6.62,-6.6187,-6.6275,-6.6281,-6.6411,-6.6448,-6.6527,-6.6816,-6.6843,0,0,0,-6.609,-6.6147,-6.6182,-6.6236,-6.6264,-6.6291,-6.6296,-6.6307,-6.6382,-6.6237,-6.6461,-6.6482,-6.6528,-6.6563,-6.6586,-6.6624,-6.6336,-6.6335,-6.6335,-6.6351,-6.6329,-6.6457,-6.6445,-6.6498,-6.6502,-6.6541,-6.6557,-6.6518,-6.6571,-6.6597,-6.6776,-6.6818,-6.6835,-6.6875,-6.6636,-6.6636,-6.6637,-6.6637,-6.6592,-6.6668,-6.6614,-6.6718,-6.6693,-6.6779,-6.6787,-6.6756,-6.6832,-6.6754,-6.6793,-6.671,-6.6866,-6.6899,-6.6644,-6.6643,-6.6642,-6.6641,-6.6641,-6.676,-6.6793,-6.6805,-6.688,-6.6939,-6.6922,-6.6997,-6.6971,-6.6946,-6.6985,-6.7009,-6.7007,-6.7002,-6.6998,-6.6999,-6.6999,-6.7,-6.7,-6.7001,-6.693,-6.6941,-6.7009,-6.7049,-6.7079,-6.7115,-6.7119,-6.7148,-6.7172,-6.7146,-6.7146,-6.7102,-6.6886,-6.6832,-6.701,-6.7008,-6.7007,-6.7006,-6.7006,-6.7183,-6.7121,-6.7226,-6.7257,-6.73,-6.736,-6.7325,-6.7384,-6.7404,-6.7441,-6.7388,-6.7233,-6.7208,-6.7189,-6.7144,-6.7393,-6.7393,-6.7393,-6.7393,-6.7325,-6.731,-6.7411,-6.7461,-6.7507,-6.7486,-6.7602,-6.7606,-6.7599,-6.7609,-6.7569,-6.7508,-6.749,-6.7475,-6.7451,-6.7408,-6.7719,-6.7719,-6.7719,-6.7478,-6.7466,-6.7573,-6.7567,-6.7598,-6.7625,-6.7733,-6.7791,-6.7771,-6.7732,-6.7616,-6.7603,-6.7503,-6.7471,-6.743,-6.7393,-6.7315,0,0]}]]